Weather History for Window Rock, AZ

Change the Weather History Date:

Sunday, February 10, 2013

  Actual Average Record
Temperature  
Mean Temperature 24 °F -  
Max Temperature 30 °F 44 °F 65 °F (1951)
Min Temperature 19 °F 17 °F -13 °F (1939)
Degree Days  
Heating Degree Days 40    
Moisture  
Dew Point 18 °F    
Average Humidity 80    
Maximum Humidity 93    
Minimum Humidity 54    
Precipitation  
Precipitation 0.04 in - - ()
Sea Level Pressure  
Sea Level Pressure 29.87 in    
Wind  
Wind Speed 8 mph (SW)    
Max Wind Speed 17 mph    
Max Gust Speed 26 mph    
Visibility 6 miles    
Events Snow    
Averages and records for this station are not official NWS values.
T = Trace of Precipitation, MM = Missing Value Source: NWS Daily Summary

Daily Weather History Graph

Daily Weather History Graph

Search for Another Location

Airport:

Trip Planner

Search our weather history database for the weather conditions in past years. The results will help you decide how hot, cold, wet, or windy it might be!

Date:

Astronomy

Feb. 10, 2013 Rise Set
Actual Time 7:07 AM MST 5:53 PM MST
Civil Twilight 6:41 AM MST 6:19 PM MST
Nautical Twilight 6:11 AM MST 6:49 PM MST
Astronomical Twilight 5:41 AM MST 7:19 PM MST
Moon 7:02 AM MST (2/10) 6:44 PM MST (2/10)
Length of Visible Light 11h 38m
Length of Day
10h 45m
New Moon, 0% of the Moon is Illuminated
Feb 10
New Moon
Feb 17
First Quarter
Feb 25
Full
Mar 4
Last Quarter
Mar 11
New

Hourly Weather History & Observations

Time (MST) Temp. Windchill Dew Point Humidity Pressure Visibility Wind Dir Wind Speed Gust Speed Precip Events Conditions
12:53 AM 21.9 °F 13.4 °F 17.1 °F 82% 29.87 in 10.0 mi SW 6.9 mph - 0.00 in   Overcast
1:05 AM 23.0 °F 15.8 °F 17.6 °F 80% 29.86 in 10.0 mi SSW 5.8 mph - N/A   Overcast
1:53 AM 21.9 °F 9.8 °F 17.1 °F 82% 29.86 in 9.0 mi SW 12.7 mph 18.4 mph 0.00 in Snow Light Snow
2:31 AM 21.2 °F 12.6 °F 17.6 °F 86% 29.85 in 10.0 mi SSW 6.9 mph - 0.00 in   Overcast
2:53 AM 21.9 °F 14.5 °F 16.0 °F 78% 29.85 in 10.0 mi Variable 5.8 mph - 0.00 in   Overcast
3:53 AM 21.9 °F 12.5 °F 17.1 °F 82% 29.84 in 9.0 mi South 8.1 mph - N/A   Overcast
4:53 AM 21.0 °F 11.4 °F 16.0 °F 81% 29.85 in 4.0 mi South 8.1 mph - 0.00 in Snow Light Snow
5:11 AM 21.2 °F 11.7 °F 17.6 °F 86% 29.84 in 2.0 mi South 8.1 mph - 0.00 in Snow Light Snow
5:30 AM 21.2 °F 12.6 °F 17.6 °F 86% 29.84 in 4.0 mi South 6.9 mph - 0.01 in Snow Light Snow
5:53 AM 19.9 °F 11.1 °F 16.0 °F 85% 29.87 in 6.0 mi SSW 6.9 mph - 0.01 in   Overcast
6:53 AM 19.9 °F 10.1 °F 16.0 °F 85% 29.87 in 7.0 mi SSW 8.1 mph - 0.00 in   Overcast
7:53 AM 21.0 °F 10.6 °F 16.0 °F 81% 29.88 in 6.0 mi SW 9.2 mph - N/A   Haze
8:53 AM 23.0 °F 11.1 °F 16.0 °F 74% 29.90 in 10.0 mi WSW 12.7 mph 18.4 mph N/A   Mostly Cloudy
9:08 AM 24.8 °F 17.9 °F 17.6 °F 74% 29.88 in 10.0 mi SW 5.8 mph 18.4 mph N/A   Mostly Cloudy
9:16 AM 24.8 °F 12.9 °F 17.6 °F 74% 29.88 in 9.0 mi SW 13.8 mph - N/A   Mostly Cloudy
9:45 AM 24.8 °F 14.6 °F 17.6 °F 74% 29.89 in 1.8 mi SW 10.4 mph - 0.00 in Snow Light Snow
9:53 AM 24.1 °F 17.0 °F 19.0 °F 81% 29.90 in 1.8 mi SSW 5.8 mph - 0.00 in Snow Light Snow
10:10 AM 26.6 °F 16.2 °F 19.4 °F 74% 29.89 in 4.0 mi SW 11.5 mph - 0.00 in Snow Light Snow
10:53 AM 27.0 °F 14.3 °F 17.1 °F 66% 29.89 in 10.0 mi SW 17.3 mph 24.2 mph 0.00 in   Overcast
11:53 AM 28.0 °F 16.5 °F 17.1 °F 63% 29.88 in 10.0 mi WSW 15.0 mph 26.5 mph N/A   Mostly Cloudy
12:16 PM 26.6 °F 14.3 °F 15.8 °F 64% 29.87 in 10.0 mi WSW 16.1 mph - N/A   Mostly Cloudy
12:53 PM 27.0 °F 16.1 °F 18.0 °F 69% 29.86 in 4.0 mi SW 12.7 mph - 0.00 in Snow Light Snow
1:53 PM 30.0 °F 19.5 °F 15.1 °F 54% 29.83 in 10.0 mi WSW 13.8 mph 19.6 mph 0.00 in   Overcast
2:53 PM 28.0 °F 18.6 °F 18.0 °F 66% 29.84 in 10.0 mi SW 10.4 mph 19.6 mph N/A   Mostly Cloudy
3:38 PM 26.6 °F 16.2 °F 19.4 °F 74% 29.83 in 2.5 mi SW 11.5 mph 23.0 mph 0.00 in Snow Light Snow
3:40 PM 26.6 °F 17.5 °F 19.4 °F 74% 29.83 in 1.8 mi SW 9.2 mph 23.0 mph 0.00 in Snow Light Snow
3:47 PM 26.6 °F 17.5 °F 19.4 °F 74% 29.84 in 3.0 mi SSW 9.2 mph - 0.00 in Snow Light Snow
3:53 PM 27.0 °F 20.5 °F 19.9 °F 75% 29.84 in 9.0 mi SSW 5.8 mph - 0.00 in   Mostly Cloudy
4:08 PM 26.6 °F 19.1 °F 19.4 °F 74% 29.84 in 5.0 mi SSW 6.9 mph - 0.00 in Snow Light Snow
4:17 PM 26.6 °F 16.8 °F 21.2 °F 80% 29.84 in 1.8 mi SSW 10.4 mph 16.1 mph 0.00 in Snow Light Snow
4:22 PM 26.6 °F 15.7 °F 21.2 °F 80% 29.84 in 0.8 mi SSW 12.7 mph - 0.00 in Snow Light Snow
4:32 PM 24.8 °F 15.3 °F 21.2 °F 86% 29.84 in 1.0 mi SSW 9.2 mph - 0.00 in Snow Light Snow
4:36 PM 26.6 °F 18.2 °F 21.2 °F 80% 29.84 in 3.0 mi SSW 8.1 mph - 0.00 in Snow Light Snow
4:44 PM 24.8 °F 15.3 °F 21.2 °F 86% 29.84 in 1.8 mi SSW 9.2 mph 16.1 mph 0.00 in Snow Light Snow
4:53 PM 25.0 °F 16.3 °F 21.0 °F 85% 29.87 in 1.2 mi SSW 8.1 mph - 0.00 in Snow Light Snow
5:27 PM 24.8 °F 19.1 °F 21.2 °F 86% 29.85 in 3.0 mi SW 4.6 mph - 0.01 in Snow Light Snow
5:46 PM 24.8 °F 16.9 °F 19.4 °F 80% 29.85 in 10.0 mi SW 6.9 mph - 0.01 in   Overcast
5:53 PM 25.0 °F 18.1 °F 18.0 °F 75% 29.88 in 10.0 mi SSW 5.8 mph - 0.01 in   Mostly Cloudy
6:44 PM 24.8 °F 17.9 °F 17.6 °F 74% 29.87 in 10.0 mi South 5.8 mph - N/A   Mostly Cloudy
6:53 PM 24.1 °F 18.2 °F 18.0 °F 77% 29.91 in 10.0 mi South 4.6 mph - N/A   Overcast
7:53 PM 24.1 °F 16.0 °F 19.0 °F 81% 29.90 in 10.0 mi SSE 6.9 mph - N/A   Overcast
8:12 PM 24.8 °F 17.9 °F 19.4 °F 80% 29.88 in 2.0 mi South 5.8 mph - 0.00 in Snow Light Snow
8:19 PM 24.8 °F 17.9 °F 21.2 °F 86% 29.88 in 1.0 mi WSW 5.8 mph - 0.00 in Snow Light Snow
8:29 PM 21.2 °F 14.9 °F 19.4 °F 93% 29.89 in 0.8 mi Variable 4.6 mph - 0.01 in Snow Light Snow
8:38 PM 21.2 °F 13.6 °F 17.6 °F 86% 29.90 in 1.2 mi West 5.8 mph - 0.01 in Snow Light Snow
8:50 PM 21.2 °F 12.6 °F 17.6 °F 86% 29.90 in 1.2 mi West 6.9 mph - 0.01 in Snow Light Snow
8:53 PM 21.9 °F 13.4 °F 18.0 °F 85% 29.93 in 1.2 mi West 6.9 mph - 0.01 in Snow Light Snow
9:01 PM 21.2 °F 16.4 °F 17.6 °F 86% 29.90 in 1.2 mi West 3.5 mph - 0.00 in Snow Light Snow
9:12 PM 21.2 °F - 19.4 °F 93% 29.90 in 3.0 mi Calm Calm - 0.00 in Snow Light Snow
9:29 PM 21.2 °F 13.6 °F 17.6 °F 86% 29.91 in 3.0 mi WSW 5.8 mph - 0.01 in Snow Light Snow
9:53 PM 21.0 °F 16.2 °F 17.1 °F 85% 29.93 in 7.0 mi West 3.5 mph - 0.01 in   Overcast
10:53 PM 21.0 °F 13.4 °F 16.0 °F 81% 29.93 in 10.0 mi WSW 5.8 mph - N/A   Overcast
11:27 PM 21.2 °F 16.4 °F 17.6 °F 86% 29.92 in 2.0 mi SSW 3.5 mph - 0.00 in Snow Light Snow
11:40 PM 19.4 °F 12.8 °F 17.6 °F 93% 29.92 in 5.0 mi SSW 4.6 mph - 0.00 in Snow Light Snow
11:53 PM 19.9 °F 14.9 °F 17.1 °F 89% 29.93 in 5.0 mi South 3.5 mph - 0.00 in Snow Light Snow